Time,TemperatureF,DewpointF,PressureIn,WindDirection,WindDirectionDegrees,WindSpeedMPH,WindSpeedGustMPH,Humidity,HourlyPrecipIn,Conditions,Clouds,dailyrainin,SoftwareType,DateUTC
2017-11-22 00:03:00,38.5,31.3,29.90,SW,216,0.0,1.0,75,0.00,,,0.00,meteohub,2017-11-22 05:03:00,
2017-11-22 00:08:00,38.5,31.3,29.90,SW,218,0.0,1.0,75,0.00,,,0.00,meteohub,2017-11-22 05:08:00,
2017-11-22 00:18:00,38.7,32.0,29.90,SW,219,0.0,1.0,77,0.00,,,0.00,meteohub,2017-11-22 05:18:00,
2017-11-22 00:28:00,38.7,32.4,29.90,SW,219,0.0,1.0,78,0.00,,,0.00,meteohub,2017-11-22 05:28:00,
2017-11-22 00:33:00,38.7,32.4,29.89,SW,219,0.0,0.0,78,0.00,,,0.00,meteohub,2017-11-22 05:33:00,
2017-11-22 00:38:00,38.7,32.4,29.89,SW,219,0.0,0.0,78,0.00,,,0.00,meteohub,2017-11-22 05:38:00,
2017-11-22 00:48:00,38.8,32.9,29.89,SW,219,0.0,2.0,79,0.00,,,0.00,meteohub,2017-11-22 05:48:00,
2017-11-22 00:53:00,38.8,32.9,29.88,SW,219,0.0,2.0,79,0.00,,,0.00,meteohub,2017-11-22 05:53:00,
2017-11-22 01:13:00,39.0,33.6,29.88,SW,219,1.0,2.0,81,0.00,,,0.00,meteohub,2017-11-22 06:13:00,
2017-11-22 01:18:00,39.4,34.3,29.87,SW,221,0.0,2.0,82,0.00,,,0.00,meteohub,2017-11-22 06:18:00,
2017-11-22 01:23:00,39.6,34.5,29.87,SW,222,0.0,2.0,82,0.00,,,0.00,meteohub,2017-11-22 06:23:00,
2017-11-22 01:33:00,40.3,35.6,29.87,SW,220,1.0,2.0,83,0.00,,,0.00,meteohub,2017-11-22 06:33:00,
2017-11-22 01:44:00,40.6,35.6,29.88,SW,219,0.0,2.0,82,0.00,,,0.00,meteohub,2017-11-22 06:44:00,
2017-11-22 01:49:00,40.8,35.4,29.88,SW,220,0.0,2.0,81,0.00,,,0.00,meteohub,2017-11-22 06:49:00,
2017-11-22 01:54:00,41.2,36.1,29.88,SW,220,0.0,2.0,82,0.00,,,0.00,meteohub,2017-11-22 06:54:00,
2017-11-22 02:04:00,41.4,36.3,29.88,SW,221,0.0,2.0,82,0.00,,,0.00,meteohub,2017-11-22 07:04:00,
2017-11-22 02:09:00,41.5,36.5,29.88,SW,221,0.0,2.0,82,0.00,,,0.00,meteohub,2017-11-22 07:09:00,
2017-11-22 02:14:00,41.7,36.7,29.88,SW,218,2.0,2.0,82,0.00,,,0.00,meteohub,2017-11-22 07:14:00,
2017-11-22 02:19:00,41.9,36.9,29.88,SW,232,2.0,2.0,82,0.00,,,0.00,meteohub,2017-11-22 07:19:00,
2017-11-22 02:24:00,42.3,37.2,29.88,SW,216,1.0,3.0,82,0.00,,,0.00,meteohub,2017-11-22 07:24:00,
2017-11-22 02:29:00,42.4,37.0,29.88,SSW,212,0.0,3.0,81,0.00,,,0.00,meteohub,2017-11-22 07:29:00,
2017-11-22 02:34:00,42.6,37.2,29.87,SW,215,0.0,3.0,81,0.00,,,0.00,meteohub,2017-11-22 07:34:00,
2017-11-22 02:39:00,43.0,37.6,29.87,SSW,202,2.0,3.0,81,0.00,,,0.00,meteohub,2017-11-22 07:39:00,
2017-11-22 02:49:00,43.3,37.9,29.88,SSW,207,0.0,4.0,81,0.00,,,0.00,meteohub,2017-11-22 07:49:00,
2017-11-22 02:54:00,43.5,37.8,29.87,SW,228,1.0,4.0,80,0.00,,,0.00,meteohub,2017-11-22 07:54:00,
2017-11-22 02:59:00,43.7,37.9,29.87,SW,231,0.0,4.0,80,0.00,,,0.00,meteohub,2017-11-22 07:59:00,
2017-11-22 03:04:00,43.7,37.9,29.87,SW,214,0.0,4.0,80,0.00,,,0.00,meteohub,2017-11-22 08:04:00,
2017-11-22 03:09:00,43.5,37.8,29.86,SSW,198,0.0,3.0,80,0.00,,,0.00,meteohub,2017-11-22 08:09:00,
2017-11-22 03:29:00,44.1,38.3,29.85,SSW,204,3.0,5.0,80,0.00,,,0.00,meteohub,2017-11-22 08:29:00,
2017-11-22 03:34:00,44.2,38.5,29.86,SW,224,0.0,5.0,80,0.00,,,0.00,meteohub,2017-11-22 08:34:00,
2017-11-22 03:39:00,44.2,38.5,29.86,SW,224,0.0,6.0,80,0.00,,,0.00,meteohub,2017-11-22 08:39:00,
2017-11-22 03:44:00,44.2,38.5,29.86,SW,224,0.0,6.0,80,0.00,,,0.00,meteohub,2017-11-22 08:44:00,
2017-11-22 03:50:00,44.1,38.3,29.85,SW,224,0.0,6.0,80,0.00,,,0.00,meteohub,2017-11-22 08:50:00,
2017-11-22 03:55:00,44.1,38.3,29.85,SW,224,0.0,0.0,80,0.00,,,0.00,meteohub,2017-11-22 08:55:00,
2017-11-22 04:05:00,43.9,38.5,29.85,SW,224,0.0,3.0,81,0.00,,,0.00,meteohub,2017-11-22 09:05:00,
2017-11-22 04:10:00,43.7,38.3,29.84,SW,216,0.0,3.0,81,0.00,,,0.00,meteohub,2017-11-22 09:10:00,
2017-11-22 04:25:00,43.5,38.1,29.84,SSW,213,0.0,4.0,81,0.00,,,0.00,meteohub,2017-11-22 09:25:00,
2017-11-22 04:30:00,43.3,37.9,29.83,SW,218,0.0,4.0,81,0.00,,,0.00,meteohub,2017-11-22 09:30:00,
2017-11-22 04:40:00,42.6,36.9,29.83,NE,39,2.0,2.0,80,0.00,,,0.00,meteohub,2017-11-22 09:40:00,
2017-11-22 04:45:00,41.7,36.7,29.83,NE,50,2.0,3.0,82,0.00,,,0.00,meteohub,2017-11-22 09:45:00,
2017-11-22 04:50:00,40.6,36.1,29.83,NE,49,1.0,3.0,84,0.00,,,0.00,meteohub,2017-11-22 09:50:00,
2017-11-22 04:55:00,40.3,36.1,29.83,NE,49,0.0,4.0,85,0.00,,,0.00,meteohub,2017-11-22 09:55:00,
2017-11-22 05:00:00,39.9,36.1,29.84,NE,49,0.0,3.0,86,0.00,,,0.00,meteohub,2017-11-22 10:00:00,
2017-11-22 05:10:00,39.7,36.1,29.84,NE,49,0.0,0.0,87,0.00,,,0.00,meteohub,2017-11-22 10:10:00,
2017-11-22 05:25:00,39.6,36.0,29.83,NE,49,0.0,0.0,87,0.00,,,0.00,meteohub,2017-11-22 10:25:00,
2017-11-22 05:30:00,39.6,36.0,29.84,NE,49,0.0,0.0,87,0.00,,,0.00,meteohub,2017-11-22 10:30:00,
2017-11-22 05:35:00,39.6,36.3,29.84,NE,49,0.0,0.0,88,0.00,,,0.00,meteohub,2017-11-22 10:35:00,
2017-11-22 05:40:00,39.6,36.3,29.84,NE,49,0.0,0.0,88,0.00,,,0.00,meteohub,2017-11-22 10:40:00,
2017-11-22 05:45:00,39.6,36.3,29.84,NE,49,0.0,0.0,88,0.00,,,0.00,meteohub,2017-11-22 10:45:00,
2017-11-22 05:50:00,39.6,36.3,29.85,NE,49,0.0,0.0,88,0.00,,,0.00,meteohub,2017-11-22 10:50:00,
2017-11-22 05:55:00,39.6,36.3,29.85,NE,49,0.0,0.0,88,0.00,,,0.00,meteohub,2017-11-22 10:55:00,
2017-11-22 06:10:00,39.4,36.1,29.85,NE,49,0.0,0.0,88,0.00,,,0.00,meteohub,2017-11-22 11:10:00,
2017-11-22 06:15:00,39.2,36.3,29.86,NE,49,0.0,0.0,89,0.00,,,0.00,meteohub,2017-11-22 11:15:00,
2017-11-22 06:20:00,39.2,36.3,29.86,NE,49,0.0,0.0,89,0.00,,,0.00,meteohub,2017-11-22 11:20:00,
2017-11-22 06:26:00,39.0,36.1,29.86,NE,49,0.0,0.0,89,0.00,,,0.00,meteohub,2017-11-22 11:26:00,
2017-11-22 06:31:00,39.0,36.1,29.87,NE,49,0.0,0.0,89,0.00,,,0.00,meteohub,2017-11-22 11:31:00,
2017-11-22 06:36:00,39.0,36.1,29.86,NE,49,0.0,0.0,89,0.00,,,0.00,meteohub,2017-11-22 11:36:00,
2017-11-22 06:46:00,39.2,36.5,29.86,NE,49,0.0,0.0,90,0.00,,,0.00,meteohub,2017-11-22 11:46:00,
2017-11-22 06:51:00,39.4,36.7,29.86,NE,49,0.0,1.0,90,0.00,,,0.00,meteohub,2017-11-22 11:51:00,
2017-11-22 07:01:00,39.6,36.9,29.87,NE,49,0.0,0.0,90,0.00,,,0.00,meteohub,2017-11-22 12:01:00,
2017-11-22 07:06:00,39.6,36.9,29.87,NE,49,0.0,0.0,90,0.00,,,0.00,meteohub,2017-11-22 12:06:00,
2017-11-22 07:16:00,39.6,36.9,29.87,NE,49,0.0,0.0,90,0.00,,,0.00,meteohub,2017-11-22 12:16:00,
2017-11-22 07:26:00,39.6,36.9,29.88,NE,49,0.0,0.0,90,0.00,,,0.00,meteohub,2017-11-22 12:26:00,
2017-11-22 07:31:00,39.6,36.9,29.88,NE,49,0.0,0.0,90,0.00,,,0.00,meteohub,2017-11-22 12:31:00,
2017-11-22 07:36:00,39.6,36.9,29.89,NE,49,0.0,0.0,90,0.00,,,0.00,meteohub,2017-11-22 12:36:00,
2017-11-22 07:41:00,39.6,37.2,29.88,NE,49,0.0,0.0,91,0.00,,,0.00,meteohub,2017-11-22 12:41:00,
2017-11-22 07:46:00,39.6,37.2,29.89,NE,49,0.0,0.0,91,0.00,,,0.00,meteohub,2017-11-22 12:46:00,
2017-11-22 07:51:00,39.7,37.4,29.89,NE,49,0.0,0.0,91,0.01,,,0.01,meteohub,2017-11-22 12:51:00,
2017-11-22 07:56:00,39.7,37.4,29.89,SSE,165,0.0,0.0,91,0.02,,,0.02,meteohub,2017-11-22 12:56:00,
2017-11-22 08:01:00,40.3,38.1,29.90,SSE,165,2.0,7.0,92,0.02,,,0.02,meteohub,2017-11-22 13:01:00,
2017-11-22 08:06:00,40.5,38.3,29.90,SSE,165,1.0,7.0,92,0.02,,,0.02,meteohub,2017-11-22 13:06:00,
2017-11-22 08:11:00,40.6,38.3,29.90,NE,37,4.0,5.0,91,0.03,,,0.03,meteohub,2017-11-22 13:11:00,
2017-11-22 08:21:00,40.5,37.8,29.90,ENE,64,1.0,7.0,90,0.03,,,0.03,meteohub,2017-11-22 13:21:00,
2017-11-22 08:26:00,40.3,37.6,29.90,ENE,60,0.0,8.0,90,0.04,,,0.04,meteohub,2017-11-22 13:26:00,
2017-11-22 08:31:00,40.1,37.0,29.90,ENE,65,1.0,8.0,89,0.04,,,0.04,meteohub,2017-11-22 13:31:00,
2017-11-22 08:36:00,39.9,36.9,29.90,NNW,338,1.0,6.0,89,0.04,,,0.04,meteohub,2017-11-22 13:36:00,
2017-11-22 08:41:00,39.7,37.0,29.91,ENE,63,4.0,6.0,90,0.04,,,0.04,meteohub,2017-11-22 13:41:00,
2017-11-22 08:46:00,39.6,36.9,29.91,NE,43,6.0,6.0,90,0.04,,,0.04,meteohub,2017-11-22 13:46:00,
2017-11-22 08:51:00,39.0,36.1,29.90,NE,44,1.0,9.0,89,0.03,,,0.04,meteohub,2017-11-22 13:51:00,
2017-11-22 08:56:00,38.7,35.8,29.90,NNW,333,0.0,9.0,89,0.02,,,0.04,meteohub,2017-11-22 13:56:00,
2017-11-22 09:01:00,38.1,35.4,29.91,ENE,66,3.0,9.0,90,0.02,,,0.04,meteohub,2017-11-22 14:01:00,
2017-11-22 09:07:00,37.9,35.1,29.91,NE,54,3.0,7.0,89,0.02,,,0.04,meteohub,2017-11-22 14:07:00,
2017-11-22 09:12:00,37.6,34.9,29.91,NE,50,3.0,9.0,90,0.01,,,0.04,meteohub,2017-11-22 14:12:00,
2017-11-22 09:22:00,37.2,34.3,29.92,NE,41,4.0,9.0,89,0.00,,,0.04,meteohub,2017-11-22 14:22:00,
2017-11-22 09:27:00,37.0,34.3,29.93,ENE,73,3.0,9.0,90,0.00,,,0.04,meteohub,2017-11-22 14:27:00,
2017-11-22 09:32:00,36.9,34.2,29.93,NNE,22,7.0,9.0,90,0.00,,,0.04,meteohub,2017-11-22 14:32:00,
2017-11-22 09:52:00,36.3,33.4,29.94,NE,53,5.0,10.0,89,0.00,,,0.04,meteohub,2017-11-22 14:52:00,
2017-11-22 10:02:00,36.3,33.4,29.94,ENE,60,3.0,10.0,89,0.00,,,0.04,meteohub,2017-11-22 15:02:00,
2017-11-22 10:07:00,36.3,33.4,29.94,ENE,65,3.0,11.0,89,0.00,,,0.04,meteohub,2017-11-22 15:07:00,
2017-11-22 10:12:00,36.1,33.3,29.94,NE,52,5.0,11.0,89,0.00,,,0.04,meteohub,2017-11-22 15:12:00,
2017-11-22 10:17:00,36.1,33.3,29.93,NE,46,5.0,11.0,89,0.00,,,0.04,meteohub,2017-11-22 15:17:00,
2017-11-22 10:22:00,36.0,33.3,29.93,NE,50,6.0,10.0,90,0.00,,,0.04,meteohub,2017-11-22 15:22:00,
2017-11-22 10:27:00,36.0,33.3,29.94,ENE,65,4.0,10.0,90,0.00,,,0.04,meteohub,2017-11-22 15:27:00,
2017-11-22 10:42:00,35.4,32.7,29.94,NE,38,7.0,7.0,90,0.00,,,0.04,meteohub,2017-11-22 15:42:00,
2017-11-22 10:48:00,35.4,32.7,29.94,East,79,6.0,7.0,90,0.00,,,0.04,meteohub,2017-11-22 15:48:00,
2017-11-22 10:58:00,35.2,32.5,29.94,NNE,17,1.0,7.0,90,0.00,,,0.04,meteohub,2017-11-22 15:58:00,
2017-11-22 11:03:00,35.2,32.5,29.94,ENE,74,4.0,8.0,90,0.00,,,0.04,meteohub,2017-11-22 16:03:00,
2017-11-22 11:08:00,35.2,32.4,29.94,ENE,67,2.0,12.0,89,0.00,,,0.04,meteohub,2017-11-22 16:08:00,
2017-11-22 11:13:00,35.2,32.4,29.94,NE,52,7.0,12.0,89,0.00,,,0.04,meteohub,2017-11-22 16:13:00,
2017-11-22 11:18:00,35.2,32.4,29.94,NE,55,3.0,10.0,89,0.00,,,0.04,meteohub,2017-11-22 16:18:00,
2017-11-22 11:28:00,35.1,31.8,29.94,NE,50,6.0,9.0,88,0.00,,,0.04,meteohub,2017-11-22 16:28:00,
2017-11-22 11:33:00,35.1,31.8,29.94,NE,45,5.0,10.0,88,0.00,,,0.04,meteohub,2017-11-22 16:33:00,
2017-11-22 11:38:00,35.1,31.6,29.94,ENE,70,2.0,10.0,87,0.00,,,0.04,meteohub,2017-11-22 16:38:00,
2017-11-22 11:43:00,35.2,31.5,29.93,NNE,27,7.0,10.0,86,0.00,,,0.04,meteohub,2017-11-22 16:43:00,
2017-11-22 11:48:00,35.4,31.3,29.94,ENE,76,1.0,11.0,85,0.00,,,0.04,meteohub,2017-11-22 16:48:00,
2017-11-22 11:53:00,35.6,31.3,29.93,NE,46,3.0,11.0,84,0.00,,,0.04,meteohub,2017-11-22 16:53:00,
2017-11-22 11:58:00,35.6,30.9,29.93,NE,44,1.0,13.0,83,0.00,,,0.04,meteohub,2017-11-22 16:58:00,
2017-11-22 12:08:00,35.6,30.9,29.94,NE,53,11.0,13.0,83,0.00,,,0.04,meteohub,2017-11-22 17:08:00,
2017-11-22 12:13:00,35.4,30.6,29.94,SSE,150,1.0,13.0,82,0.00,,,0.04,meteohub,2017-11-22 17:13:00,
2017-11-22 12:18:00,35.4,30.7,29.94,NE,53,4.0,13.0,83,0.00,,,0.04,meteohub,2017-11-22 17:18:00,
2017-11-22 12:23:00,35.4,30.6,29.94,East,81,4.0,13.0,82,0.00,,,0.04,meteohub,2017-11-22 17:23:00,
2017-11-22 12:28:00,35.4,30.6,29.94,ENE,60,3.0,10.0,82,0.00,,,0.04,meteohub,2017-11-22 17:28:00,
2017-11-22 12:33:00,35.2,30.4,29.94,NE,54,5.0,10.0,82,0.00,,,0.04,meteohub,2017-11-22 17:33:00,
2017-11-22 12:43:00,35.2,30.4,29.94,NE,42,2.0,9.0,82,0.00,,,0.04,meteohub,2017-11-22 17:43:00,
2017-11-22 12:53:00,35.2,30.6,29.94,NE,50,2.0,13.0,83,0.00,,,0.04,meteohub,2017-11-22 17:53:00,
2017-11-22 12:58:00,35.2,30.4,29.94,SE,143,1.0,13.0,82,0.00,,,0.04,meteohub,2017-11-22 17:58:00,
2017-11-22 13:09:00,35.4,29.8,29.95,ENE,58,1.0,10.0,80,0.00,,,0.04,meteohub,2017-11-22 18:09:00,
2017-11-22 13:14:00,35.6,29.7,29.95,ESE,107,1.0,10.0,79,0.00,,,0.04,meteohub,2017-11-22 18:14:00,
2017-11-22 13:19:00,35.6,29.7,29.95,ENE,74,2.0,9.0,79,0.00,,,0.04,meteohub,2017-11-22 18:19:00,
2017-11-22 13:24:00,35.4,29.5,29.96,ENE,61,3.0,7.0,79,0.00,,,0.04,meteohub,2017-11-22 18:24:00,
2017-11-22 13:29:00,35.4,29.3,29.96,NNE,32,1.0,7.0,78,0.00,,,0.04,meteohub,2017-11-22 18:29:00,
2017-11-22 13:34:00,35.2,29.1,29.96,ENE,58,4.0,12.0,78,0.01,,,0.05,meteohub,2017-11-22 18:34:00,
2017-11-22 13:39:00,35.2,29.1,29.96,ENE,78,2.0,13.0,78,0.01,,,0.05,meteohub,2017-11-22 18:39:00,
2017-11-22 13:44:00,35.1,28.9,29.96,NE,41,5.0,13.0,78,0.01,,,0.05,meteohub,2017-11-22 18:44:00,
2017-11-22 13:49:00,35.1,28.9,29.96,ESE,116,2.0,13.0,78,0.01,,,0.05,meteohub,2017-11-22 18:49:00,
2017-11-22 13:54:00,35.1,28.2,29.96,North,6,4.0,10.0,76,0.01,,,0.05,meteohub,2017-11-22 18:54:00,
2017-11-22 14:04:00,34.9,27.5,29.96,SE,126,2.0,19.0,74,0.01,,,0.05,meteohub,2017-11-22 19:04:00,
2017-11-22 14:09:00,34.9,27.5,29.96,ENE,78,1.0,19.0,74,0.01,,,0.05,meteohub,2017-11-22 19:09:00,
2017-11-22 14:14:00,35.1,27.9,29.96,ESE,109,1.0,10.0,75,0.01,,,0.05,meteohub,2017-11-22 19:14:00,
2017-11-22 14:19:00,35.1,27.7,29.96,NE,47,1.0,10.0,74,0.01,,,0.05,meteohub,2017-11-22 19:19:00,
2017-11-22 14:39:00,35.1,27.7,29.96,ENE,70,1.0,4.0,74,0.00,,,0.05,meteohub,2017-11-22 19:39:00,
2017-11-22 14:43:00,35.1,27.7,29.97,ENE,58,2.0,4.0,74,0.00,,,0.05,meteohub,2017-11-22 19:43:00,
2017-11-22 14:48:00,35.1,27.9,29.97,ENE,64,0.0,4.0,75,0.00,,,0.05,meteohub,2017-11-22 19:48:00,
2017-11-22 14:53:00,34.9,27.7,29.97,NE,56,5.0,5.0,75,0.00,,,0.05,meteohub,2017-11-22 19:53:00,
2017-11-22 14:58:00,34.9,27.5,29.98,East,91,1.0,7.0,74,0.00,,,0.05,meteohub,2017-11-22 19:58:00,
2017-11-22 15:03:00,34.7,27.3,29.98,NE,48,8.0,8.0,74,0.00,,,0.05,meteohub,2017-11-22 20:03:00,
2017-11-22 15:08:00,34.3,27.5,29.99,ENE,67,3.0,14.0,76,0.00,,,0.05,meteohub,2017-11-22 20:08:00,
2017-11-22 15:13:00,34.0,27.5,29.98,NE,50,2.0,14.0,77,0.00,,,0.05,meteohub,2017-11-22 20:13:00,
2017-11-22 15:18:00,33.6,27.1,29.99,NE,53,4.0,14.0,77,0.00,,,0.05,meteohub,2017-11-22 20:18:00,
2017-11-22 15:23:00,33.4,27.0,30.00,NE,41,0.0,13.0,77,0.00,,,0.05,meteohub,2017-11-22 20:23:00,
2017-11-22 15:38:00,33.1,26.4,30.00,ENE,75,3.0,14.0,76,0.00,,,0.05,meteohub,2017-11-22 20:38:00,
2017-11-22 15:43:00,33.1,26.6,30.01,NE,50,3.0,14.0,77,0.00,,,0.05,meteohub,2017-11-22 20:43:00,
2017-11-22 15:48:00,33.1,26.6,30.01,NE,56,1.0,11.0,77,0.00,,,0.05,meteohub,2017-11-22 20:48:00,
2017-11-22 15:53:00,33.1,26.6,30.01,NE,49,5.0,7.0,77,0.00,,,0.05,meteohub,2017-11-22 20:53:00,
2017-11-22 15:58:00,32.9,27.1,30.01,East,85,2.0,8.0,79,0.00,,,0.05,meteohub,2017-11-22 20:58:00,
2017-11-22 16:03:00,32.7,26.6,30.00,ENE,63,1.0,12.0,78,0.00,,,0.05,meteohub,2017-11-22 21:03:00,
2017-11-22 16:08:00,32.7,27.0,30.00,NE,50,5.0,12.0,79,0.00,,,0.05,meteohub,2017-11-22 21:08:00,
2017-11-22 16:13:00,32.7,27.0,30.01,NE,52,5.0,12.0,79,0.00,,,0.05,meteohub,2017-11-22 21:13:00,
2017-11-22 16:18:00,32.5,26.8,30.01,ENE,58,4.0,10.0,79,0.00,,,0.05,meteohub,2017-11-22 21:18:00,
2017-11-22 16:23:00,32.4,27.0,30.01,NNE,22,7.0,10.0,80,0.00,,,0.05,meteohub,2017-11-22 21:23:00,
2017-11-22 16:28:00,32.4,27.5,30.02,East,80,4.0,10.0,82,0.00,,,0.05,meteohub,2017-11-22 21:28:00,
2017-11-22 16:43:00,31.6,26.4,30.01,NE,53,4.0,8.0,81,0.00,,,0.05,meteohub,2017-11-22 21:43:00,
2017-11-22 16:48:00,31.5,26.6,30.02,NE,52,3.0,9.0,82,0.00,,,0.05,meteohub,2017-11-22 21:48:00,
2017-11-22 16:53:00,31.5,26.6,30.02,ENE,60,5.0,12.0,82,0.00,,,0.05,meteohub,2017-11-22 21:53:00,
2017-11-22 16:58:00,31.5,26.6,30.02,ENE,67,4.0,12.0,82,0.00,,,0.05,meteohub,2017-11-22 21:58:00,
2017-11-22 17:03:00,31.5,26.2,30.02,NNE,33,9.0,12.0,81,0.00,,,0.05,meteohub,2017-11-22 22:03:00,
2017-11-22 17:08:00,31.5,26.2,30.03,NE,50,1.0,9.0,81,0.00,,,0.05,meteohub,2017-11-22 22:08:00,
2017-11-22 17:13:00,31.3,26.4,30.03,NE,40,9.0,9.0,82,0.00,,,0.05,meteohub,2017-11-22 22:13:00,
2017-11-22 17:19:00,31.3,25.9,30.03,NE,52,4.0,9.0,80,0.00,,,0.05,meteohub,2017-11-22 22:19:00,
2017-11-22 17:24:00,31.3,26.1,30.04,NE,53,1.0,12.0,81,0.00,,,0.05,meteohub,2017-11-22 22:24:00,
2017-11-22 17:29:00,31.1,25.0,30.04,ENE,58,6.0,12.0,78,0.00,,,0.05,meteohub,2017-11-22 22:29:00,
2017-11-22 17:34:00,30.9,24.8,30.04,NE,37,9.0,13.0,78,0.00,,,0.05,meteohub,2017-11-22 22:34:00,
2017-11-22 17:39:00,31.1,25.0,30.04,North,8,4.0,13.0,78,0.00,,,0.05,meteohub,2017-11-22 22:39:00,
2017-11-22 17:49:00,31.3,25.5,30.05,ENE,59,3.0,12.0,79,0.00,,,0.05,meteohub,2017-11-22 22:49:00,
2017-11-22 17:54:00,31.1,25.0,30.04,NE,35,7.0,12.0,78,0.00,,,0.05,meteohub,2017-11-22 22:54:00,
2017-11-22 17:59:00,30.9,24.8,30.05,NE,35,5.0,8.0,78,0.00,,,0.05,meteohub,2017-11-22 22:59:00,
2017-11-22 18:04:00,30.9,24.8,30.05,ENE,58,4.0,8.0,78,0.00,,,0.05,meteohub,2017-11-22 23:04:00,
2017-11-22 18:09:00,30.9,24.6,30.05,NE,44,1.0,7.0,77,0.00,,,0.05,meteohub,2017-11-22 23:09:00,
2017-11-22 18:14:00,30.9,24.8,30.05,East,85,2.0,9.0,78,0.00,,,0.05,meteohub,2017-11-22 23:14:00,
2017-11-22 18:19:00,30.7,24.4,30.05,East,81,1.0,9.0,77,0.00,,,0.05,meteohub,2017-11-22 23:19:00,
2017-11-22 18:24:00,30.7,24.6,30.05,East,83,2.0,9.0,78,0.00,,,0.05,meteohub,2017-11-22 23:24:00,
2017-11-22 18:34:00,30.7,24.4,30.05,NE,43,3.0,13.0,77,0.00,,,0.05,meteohub,2017-11-22 23:34:00,
2017-11-22 18:39:00,30.7,24.4,30.06,NNE,17,6.0,13.0,77,0.00,,,0.05,meteohub,2017-11-22 23:39:00,
2017-11-22 18:44:00,30.6,24.3,30.06,East,79,3.0,13.0,77,0.00,,,0.05,meteohub,2017-11-22 23:44:00,
2017-11-22 18:49:00,30.6,23.9,30.06,NE,50,5.0,10.0,76,0.00,,,0.05,meteohub,2017-11-22 23:49:00,
2017-11-22 18:54:00,30.6,24.3,30.07,NE,47,5.0,10.0,77,0.00,,,0.05,meteohub,2017-11-22 23:54:00,
2017-11-22 18:59:00,30.6,23.9,30.07,NE,54,3.0,11.0,76,0.00,,,0.05,meteohub,2017-11-22 23:59:00,
2017-11-22 19:04:00,30.4,23.4,30.07,NNE,17,4.0,11.0,75,0.00,,,0.05,meteohub,2017-11-23 00:04:00,
2017-11-22 19:14:00,30.2,23.5,30.07,NNE,22,4.0,12.0,76,0.00,,,0.05,meteohub,2017-11-23 00:14:00,
2017-11-22 19:19:00,30.2,23.5,30.07,NNE,33,6.0,12.0,76,0.00,,,0.05,meteohub,2017-11-23 00:19:00,
2017-11-22 19:24:00,30.0,23.4,30.07,NE,43,4.0,13.0,76,0.00,,,0.05,meteohub,2017-11-23 00:24:00,
2017-11-22 19:29:00,29.8,23.2,30.06,NE,43,0.0,13.0,76,0.00,,,0.05,meteohub,2017-11-23 00:29:00,
2017-11-22 19:40:00,30.0,24.1,30.08,NE,49,2.0,8.0,78,0.00,,,0.05,meteohub,2017-11-23 00:40:00,
2017-11-22 19:45:00,29.8,23.2,30.08,NE,45,8.0,8.0,76,0.00,,,0.05,meteohub,2017-11-23 00:45:00,
2017-11-22 19:50:00,29.8,22.8,30.08,ENE,66,4.0,8.0,75,0.00,,,0.05,meteohub,2017-11-23 00:50:00,
2017-11-22 19:55:00,29.7,22.5,30.07,ENE,58,1.0,16.0,74,0.00,,,0.05,meteohub,2017-11-23 00:55:00,